sat.trackr.live / text

‹ back to catalog

STARLINK-5003

NORAD 53905 · 2022-119V

PAYLOAD ACTIVE UNKNOWN

§ Identity

Operator
Country
US
Launch date
2022-09-24
Launch site
AFETR
Launch vehicle
Mass (kg)
RCS (m²)

Purposes: comms

External: N2YO · Heavens-Above · Gunter

§ Orbital elements

Epoch: 2026-09-19T06:08:19.316832Z

Period
95.44 min
Inclination
53.1589°
Eccentricity
0.0001438
Mean motion
15.08837347 rev/d
Perigee alt
538.8 km
Apogee alt
540.7 km
Semi-major
6,917.9 km
B*
2.3178e-4
RAAN
164.7341°
Arg perigee
104.5379°
Mean anomaly
255.5771°
Rev number
22,104

§ Raw data

STARLINK-50031 53905U 22119V   26262.25577913  .00003403  00000+0  23178-3 0  99972 53905  53.1589 164.7341 0001438 104.5379 255.5771 15.08837347221043

JSON: /api/v1/satellites/53905 · /tle

For live sub-satellite position, see the globe view (requires WebGL).

§ Visibility from observer

Set your observer location to see the next 7 days of passes ≥ 10°. The values pass through the URL so the page stays shareable.

No JS? Fill the form by hand. The geolocation button needs JavaScript.